{"data":{"norad_id":65204,"intl_designator":"2025-176G","name":"STARLINK-34787","alt_names":[],"object_type":"PAYLOAD","status":"ACTIVE","operator":null,"country":"US","launch_date":"2025-08-14","launch_site_code":"AFETR","launch_vehicle":null,"mission":null,"orbit_class":"UNKNOWN","rcs_meters":null,"size_class":null,"mass_kg":null,"dimensions":null,"purposes":["comms"],"wikipedia_slug":null,"has_3d_model":false,"image_url":null,"decayed_at":null,"tle_current":{"epoch":"2026-05-25T01:02:28.406976Z","epoch_age_seconds":68522,"freshness":"FRESH","line1":"1 65204U 25176G   26145.04338434  .00026585  00000+0  79508-3 0  9992","line2":"2 65204  53.1588 157.1439 0001289  87.2425 272.8725 15.34403523 44828","mean_motion":15.34403523,"eccentricity":0.0001289,"inclination_deg":53.1588,"raan_deg":157.1439,"arg_perigee_deg":87.2425,"mean_anomaly_deg":272.8725,"bstar":0.00079508,"rev_number":4482,"period_min":93.8475426063,"perigee_km":461.81098617146,"apogee_km":463.57455208594,"semimajor_km":6840.8297691287,"source":"CELESTRAK","updated_at":"2026-05-25T13:38:20.718637Z"}}}